• In Deutschland
  • Länderverzeichnis
  • Für 7 Tage
  • Wassertemperatur
  • Satellitenkarten
  • Wetterkarte
  • Widgets
  • user-avatar
    Anmelden

    Stündliche Wetter Ganderkesee

    Heute, 20 September, Donnerstag

    Zeit Temperatur Niederschläge Wind Luftdruck Luftfeuchtigkeit
    00:00 +18°C° 0 mm 4 m/S 759 mmHg 73%
    01:00 +18°C° 0 mm 4 m/S 759 mmHg 72%
    02:00 +18°C° 0 mm 4 m/S 759 mmHg 74%
    03:00 +18°C° 0 mm 4 m/S 759 mmHg 76%
    04:00 +17°C° 0 mm 4 m/S 759 mmHg 78%
    05:00 +17°C° 0 mm 4 m/S 759 mmHg 79%
    06:00 +17°C° 0 mm 4 m/S 759 mmHg 80%
    07:00 +17°C° 0 mm 4 m/S 759 mmHg 81%
    08:00 +19°C° 0 mm 5 m/S 759 mmHg 75%
    09:00 +21°C° 0 mm 6 m/S 759 mmHg 69%
    10:00 +22°C° 0 mm 6 m/S 758 mmHg 63%
    11:00 +23°C° 0 mm 6 m/S 758 mmHg 60%
    12:00 +24°C° 0 mm 6 m/S 758 mmHg 57%
    13:00 +26°C° 0 mm 7 m/S 758 mmHg 54%
    14:00 +26°C° 0 mm 6 m/S 757 mmHg 53%
    15:00 +26°C° 0 mm 6 m/S 757 mmHg 52%
    16:00 +26°C° 0 mm 5 m/S 757 mmHg 51%
    17:00 +23°C° 0 mm 5 m/S 756 mmHg 56%
    18:00 +22°C° 0 mm 4 m/S 756 mmHg 61%
    19:00 +20°C° 0 mm 3 m/S 756 mmHg 66%
    20:00 +20°C° 0 mm 3 m/S 755 mmHg 67%
    21:00 +20°C° 0 mm 4 m/S 755 mmHg 67%
    22:00 +19°C° 0 mm 4 m/S 755 mmHg 68%
    23:00 +19°C° 0 mm 5 m/S 754 mmHg 67%

    Morgen, 21 September, Freitag

    Zeit Temperatur Niederschläge Wind Luftdruck Luftfeuchtigkeit
    00:00 +20°C° 0 mm 5 m/S 753 mmHg 66%
    01:00 +20°C° 0 mm 5 m/S 752 mmHg 65%
    02:00 +20°C° 0 mm 6 m/S 752 mmHg 62%
    03:00 +20°C° 0 mm 6 m/S 751 mmHg 58%
    04:00 +21°C° 0 mm 7 m/S 750 mmHg 55%
    05:00 +21°C° 0 mm 7 m/S 749 mmHg 55%
    06:00 +21°C° 0 mm 7 m/S 748 mmHg 55%
    07:00 +22°C° 0 mm 8 m/S 748 mmHg 55%
    08:00 +21°C° 0.5 mm 9 m/S 748 mmHg 61%
    09:00 +19°C° 0.5 mm 10 m/S 748 mmHg 67%
    10:00 +18°C° 0.5 mm 11 m/S 748 mmHg 73%
    11:00 +17°C° 0.6 mm 10 m/S 749 mmHg 69%
    12:00 +16°C° 0.6 mm 10 m/S 750 mmHg 65%
    13:00 +15°C° 0.6 mm 9 m/S 751 mmHg 61%
    14:00 +15°C° 0.1 mm 9 m/S 752 mmHg 59%
    15:00 +14°C° 0.1 mm 10 m/S 752 mmHg 57%
    16:00 +14°C° 0.1 mm 10 m/S 753 mmHg 55%
    17:00 +13°C° 0 mm 8 m/S 753 mmHg 54%
    18:00 +12°C° 0 mm 7 m/S 754 mmHg 54%
    19:00 +12°C° 0 mm 5 m/S 754 mmHg 54%
    20:00 +11°C° 0 mm 6 m/S 754 mmHg 55%
    21:00 +11°C° 0 mm 7 m/S 755 mmHg 56%
    22:00 +11°C° 0 mm 8 m/S 755 mmHg 57%
    23:00 +11°C° 0 mm 8 m/S 755 mmHg 60%

    übermorgen, 22 September, Samstag

    Zeit Temperatur Niederschläge Wind Luftdruck Luftfeuchtigkeit
    00:00 +11°C° 0 mm 7 m/S 756 mmHg 63%
    01:00 +10°C° 0 mm 7 m/S 756 mmHg 67%
    02:00 +10°C° 0 mm 6 m/S 757 mmHg 70%
    03:00 +10°C° 0 mm 6 m/S 758 mmHg 73%
    04:00 +9°C° 0 mm 5 m/S 758 mmHg 76%
    05:00 +9°C° 0 mm 5 m/S 758 mmHg 76%
    06:00 +9°C° 0 mm 6 m/S 759 mmHg 76%
    07:00 +9°C° 0 mm 6 m/S 759 mmHg 77%
    08:00 +11°C° 0 mm 7 m/S 759 mmHg 71%
    09:00 +12°C° 0 mm 7 m/S 759 mmHg 64%
    10:00 +15°C° 0 mm 8 m/S 760 mmHg 58%
    11:00 +15°C° 0.1 mm 8 m/S 760 mmHg 56%
    12:00 +15°C° 0.1 mm 8 m/S 760 mmHg 54%
    13:00 +15°C° 0.1 mm 8 m/S 760 mmHg 52%
    14:00 +15°C° 0 mm 8 m/S 760 mmHg 53%
    15:00 +15°C° 0 mm 7 m/S 761 mmHg 53%
    16:00 +15°C° 0 mm 7 m/S 761 mmHg 53%
    17:00 +13°C° 0 mm 6 m/S 761 mmHg 59%
    18:00 +12°C° 0 mm 5 m/S 761 mmHg 64%
    19:00 +11°C° 0 mm 3 m/S 761 mmHg 70%
    20:00 +11°C° 0 mm 3 m/S 761 mmHg 71%
    21:00 +11°C° 0 mm 3 m/S 761 mmHg 72%
    22:00 +10°C° 0 mm 3 m/S 761 mmHg 74%
    23:00 +10°C° 0 mm 3 m/S 761 mmHg 75%

    23 September, Sonntag

    Zeit Temperatur Niederschläge Wind Luftdruck Luftfeuchtigkeit
    00:00 +10°C° 0 mm 3 m/S 760 mmHg 77%
    01:00 +10°C° 0 mm 3 m/S 760 mmHg 78%
    02:00 +10°C° 0.4 mm 3 m/S 759 mmHg 83%
    03:00 +9°C° 0.4 mm 2 m/S 759 mmHg 87%
    04:00 +9°C° 0.4 mm 2 m/S 759 mmHg 92%
    05:00 +9°C° 0.6 mm 2 m/S 758 mmHg 93%
    06:00 +9°C° 0.6 mm 2 m/S 757 mmHg 94%
    07:00 +9°C° 0.6 mm 2 m/S 756 mmHg 95%
    08:00 +9°C° 0.8 mm 3 m/S 755 mmHg 94%
    09:00 +10°C° 0.8 mm 4 m/S 754 mmHg 93%
    10:00 +9°C° 0.8 mm 5 m/S 753 mmHg 92%
    11:00 +9°C° 3.5 mm 5 m/S 752 mmHg 93%
    12:00 +9°C° 3.5 mm 5 m/S 751 mmHg 93%
    13:00 +9°C° 3.5 mm 6 m/S 749 mmHg 94%
    14:00 +9°C° 3.2 mm 6 m/S 748 mmHg 94%
    15:00 +9°C° 3.2 mm 7 m/S 747 mmHg 94%
    16:00 +9°C° 3.2 mm 7 m/S 746 mmHg 94%
    17:00 +7°C° 3.7 mm 8 m/S 747 mmHg 93%
    18:00 +7°C° 3.7 mm 8 m/S 748 mmHg 92%
    19:00 +7°C° 3.7 mm 9 m/S 748 mmHg 91%
    20:00 +7°C° 0.8 mm 8 m/S 750 mmHg 89%
    21:00 +8°C° 0.8 mm 7 m/S 752 mmHg 87%
    22:00 +8°C° 0.8 mm 6 m/S 754 mmHg 86%
    23:00 +8°C° 0.1 mm 6 m/S 755 mmHg 85%

    24 September, Montag

    Zeit Temperatur Niederschläge Wind Luftdruck Luftfeuchtigkeit
    00:00 +8°C° 0.1 mm 6 m/S 757 mmHg 83%
    01:00 +8°C° 0.1 mm 6 m/S 758 mmHg 82%
    02:00 +8°C° 0 mm 6 m/S 759 mmHg 81%
    03:00 +8°C° 0 mm 6 m/S 760 mmHg 80%
    04:00 +8°C° 0 mm 7 m/S 761 mmHg 78%
    05:00 +8°C° 0 mm 6 m/S 762 mmHg 78%
    06:00 +8°C° 0 mm 6 m/S 763 mmHg 78%
    07:00 +8°C° 0 mm 6 m/S 764 mmHg 77%
    08:00 +9°C° 0.1 mm 6 m/S 765 mmHg 72%
    09:00 +10°C° 0.1 mm 7 m/S 766 mmHg 67%
    10:00 +11°C° 0.1 mm 8 m/S 767 mmHg 62%
    11:00 +12°C° 0.2 mm 8 m/S 767 mmHg 61%
    12:00 +12°C° 0.2 mm 8 m/S 768 mmHg 59%
    13:00 +12°C° 0.2 mm 7 m/S 768 mmHg 58%
    14:00 +12°C° 0.2 mm 7 m/S 768 mmHg 60%
    15:00 +12°C° 0.2 mm 7 m/S 769 mmHg 62%
    16:00 +11°C° 0.2 mm 7 m/S 769 mmHg 64%
    17:00 +10°C° 0.2 mm 6 m/S 769 mmHg 69%
    18:00 +9°C° 0.2 mm 5 m/S 769 mmHg 74%
    19:00 +8°C° 0.2 mm 4 m/S 770 mmHg 80%
    20:00 +7°C° 0 mm 4 m/S 770 mmHg 81%
    21:00 +7°C° 0 mm 4 m/S 770 mmHg 82%
    22:00 +7°C° 0 mm 4 m/S 770 mmHg 84%
    23:00 +7°C° 0 mm 4 m/S 770 mmHg 84%

    25 September, Dienstag

    Zeit Temperatur Niederschläge Wind Luftdruck Luftfeuchtigkeit
    00:00 +7°C° 0 mm 4 m/S 770 mmHg 85%
    01:00 +6°C° 0 mm 4 m/S 770 mmHg 86%
    02:00 +7°C° 0 mm 5 m/S 770 mmHg 86%
    03:00 +7°C° 0 mm 5 m/S 770 mmHg 87%
    04:00 +7°C° 0 mm 5 m/S 770 mmHg 87%
    05:00 +7°C° 0.1 mm 6 m/S 770 mmHg 86%
    06:00 +8°C° 0.1 mm 6 m/S 770 mmHg 85%
    07:00 +8°C° 0.1 mm 6 m/S 769 mmHg 84%
    08:00 +10°C° 0.2 mm 7 m/S 770 mmHg 80%
    09:00 +11°C° 0.2 mm 7 m/S 770 mmHg 76%
    10:00 +13°C° 0.2 mm 8 m/S 770 mmHg 73%
    11:00 +13°C° 0.3 mm 8 m/S 770 mmHg 71%
    12:00 +15°C° 0.3 mm 8 m/S 770 mmHg 69%
    13:00 +15°C° 0.3 mm 8 m/S 770 mmHg 67%
    14:00 +15°C° 0.3 mm 7 m/S 770 mmHg 69%
    15:00 +15°C° 0.3 mm 7 m/S 770 mmHg 71%
    16:00 +15°C° 0.3 mm 6 m/S 770 mmHg 73%
    17:00 +13°C° 0.1 mm 5 m/S 770 mmHg 78%
    18:00 +12°C° 0.1 mm 4 m/S 770 mmHg 83%
    19:00 +11°C° 0.1 mm 3 m/S 771 mmHg 89%
    20:00 +11°C° 0 mm 3 m/S 771 mmHg 90%
    21:00 +10°C° 0 mm 3 m/S 771 mmHg 92%
    22:00 +10°C° 0 mm 3 m/S 772 mmHg 94%
    23:00 +9°C° 0 mm 3 m/S 772 mmHg 94%
    Mehr zeigen